Terminal Aerodrome Forecast
Issued by NWS Spokane, WA

Home | Current Version | Previous Version | Text Only | Print | Product List | Glossary On
Versions: 1 2 3 4 5 6 7 8 9 10 11 12 13
000
FTUS46 KOTX 251120
TAFEAT
TAF
KEAT 251120Z 2512/2612 29007KT P6SM SKC
     FM251800 31006KT P6SM FEW100
     FM260300 36006KT P6SM SKC=

USA.gov is the U.S. government's official web portal to all federal, state and local government web resources and services.